Location: Stoke Bliss
(52.2667°N, 2.5167°W)
Time: 14:26:28
(UTC+00:00)

Envisat - Pass Details

Date: 05 December 2021
Orbit: 764 x 766 km, 98.2° (Epoch: 28 January)

Event Time Altitude Azimuth Distance (km) Brightness Sun altitude
Rises 17:54:14 0° 222° (SW) 3,225 7.2 -16.6°
Reaches altitude 10° 17:58:00 10° 251° (WSW) 2,306 6.8 -17.2°
Maximum altitude 18:00:09 13° 276° (W) 2,131 6.3 -17.5°
Drops below altitude 10° 18:02:19 10° 302° (WNW) 2,314 6.1 -17.8°
Sets 18:06:08 0° 331° (NNW) 3,247 6.5 -18.4°
